Regional Weather Roundup
Issued by NWS Newport/Morehead, NC

Current Version | Previous Version | Graphics & Text | Print | Product List | Glossary Off
Versions: 1 2 3 4 5 6 7 8 9 10 11 12 13 14 15 16 17 18 19 20 21 22 23 24 25 26 27 28 29 30 31 32 33 34 35 36 37 38 39 40 41 42 43 44 45 46 47 48 49 50

000
ASUS42 KMHX 012113
RWRMHX
WEATHER ROUNDUP FOR EASTERN NORTH CAROLINA
NATIONAL WEATHER SERVICE NEWPORT/MOREHEAD CITY NC
500 PM EDT SAT AUG 01 2015

NOTE: "FAIR" INDICATES FEW OR NO CLOUDS BELOW 12,000 FEET
WITH NO SIGNIFICANT WEATHER AND/OR OBSTRUCTIONS TO VISIBILITY

NCZ015>017-031-032-045>047-102-103-012200-
NORTH COAST

CITY           SKY/WX    TMP DP  RH WIND       PRES   REMARKS
EDENTON          N/A     89  71  54 SE8       29.86F
ELIZABETH CITY SUNNY     88  70  55 S10       29.86F
KITTY HAWK     PTCLDY    92  66  41 S3        29.86F
MANTEO         MOSUNNY   86  72  62 S9        29.87F

$$

NCZ045>047-081-094-103-104-012200-
CENTRAL COAST

CITY           SKY/WX    TMP DP  RH WIND       PRES   REMARKS
FRISCO         CLOUDY    84  75  74 SW8       29.89F
SWANQUARTER      N/A     88 N/A N/A S8        29.82F

$$

NCZ095-097-098-100-101-012200-
SOUTHERN COAST

CITY           SKY/WX    TMP DP  RH WIND       PRES   REMARKS
BEAUFORT       PTSUNNY   83  78  85 SW15      29.89F
CEDAR ISLAND     N/A     84 N/A N/A S10G17    29.91F
JACKSONVILLE   SUNNY     87  75  67 S14       29.86F
PINEY ISLAND   PTCLDY   N/A N/A N/A S8        29.88F
WILMINGTON     CLOUDY    86  75  69 SE10G21   29.87F


$$

NCZ011>013-027>030-043-044-078>080-089-090>093-098-012200-
COASTAL PLAIN

CITY           SKY/WX    TMP DP  RH WIND       PRES   REMARKS
AHOSKIE        MOSUNNY   91  57  32 CALM      29.86S
CLINTON        SUNNY     91  63  38 CALM      29.87F
ELIZABETHTOWN  SUNNY     94  57  28 CALM      29.87F
GOLDSBORO      SUNNY     93  66  40 VRB2      29.84F
GREENVILLE     SUNNY     91  63  38 W6        29.88F
HAVELOCK       MOSUNNY   85  76  74 S10       29.88F
KENANSVILLE    SUNNY     91  57  32 CALM      29.88F
KINSTON        SUNNY     91  52  25 NW7       29.87
NEW BERN       MOSUNNY   92  63  38 SW5       29.87F
RICHLANDS      SUNNY     93  61  33 W6        29.87S
ROCKY MOUNT    SUNNY     95  55  26 W8        29.87S
WASHINGTON     SUNNY     91  63  39 CALM      29.86F
WHITEVILLE     SUNNY     92  67  43 SE5       29.87F

$$

AMZ130-135-150-152-154-156-158-170-250-252-270-ANZ085-086-088-633-658-670-012200-
MARINE OBSERVATIONS

STATION/POSITION TIME  TEMP    WIND        PRES    WAVE   SWELL
                       AIR SEA DIR/SP/G            HT/PER HT/PER
                 (UTC) (F)     (DEG/KT/KT) (MB)    (FT/S) (FT/S)
CHESAPEAKE LIGHT 2100   81     170/ 17/ 18 1011.6
64 E VA BEACH    2050   80 82  190/ 14/ 16 1011.8    4/ 8   3/ 8
DUCK             2000   82 80  130/ 12/ 13 1010.9
2 E DUCK         2011      81                N/A     3/ 5
OREGON INLET     2000   82 83  180/ 11/ 15 1012.2
13E OREGON INLT  2100      82                N/A     4/ 7
HATTERAS CG      2000   82 81  200/  6/  9 1012.0
DIAMOND BUOY     2050   78 85  230/ 17/ 21 1012.3    3/ 7   2/ 7
CAPE LOOKOUT     2100   82     220/ 10/ 15 1011.8
BEAUFORT LAB     2000   82 84  200/ 10/ 13 1011.7
30 SE NEW RVR IN NOT AVBL
27 SE WRIGHTSVLE 2000   78 83  230/ 10/ 14   N/A
5 SE WRIGHTSVLE  NOT AVBL
225 S CAPE HAT   2050   83 81  230/ 14/ 16 1015.5    6/ 7   5/ 7
41 SE CHARLESTON 2050   80 84  130/  6/  8 1012.7    4/ 7   3/ 7

$$


USA.gov is the U.S. government's official web portal to all federal, state and local government web resources and services.